SCP
0 0 0 0 0 0 0 0 0 0 0 0 0 0 0 0 0 0 0 0 0 0 0 0 0 0 0 0 0 0 0 0 0 0 0 0 0 0
0 0 0 0 0 0 0 0 0 0 0 0 0 0 0 0 0 0 0 0 0 0 0 0 0 0 0 0 0 0 0 0 0 0 0 0 0 0
0 0 0 0 0 0 0 0 0 0 0 0 0 0 0 0 0 0 0 0 0 0 0 0 0 0 0 0 0 0 0 0 0 0 0 0 0 0
0 0 0 0 0 0 0 0 0 0 0 0 0 0 0 0 0 0 0 0 0 0 0 0 0 0 0 0 0 0 0 0 0 0 0 0 0 0
0 0 0 0 0 0 0 0 0 0 0 0 0 0 0 0 0 0 0 0 0 0 0 0 0 0 0 0 0 0 0 0 0 0 0 0 0 0
0 0 0 0 0 0 0 0 0 0 0 0 0 0 0 0 0 0 0 0 0 0 0 0 0 0 0 0 0 0 0 0 0 0 0 0 0 0
0 0 0 0 0 0 0 0 0 0 0 0 0 0 0 0 0 0 0 0 0 0 0 0 0 0 0 0 0 0 0 0 0 0 0 0 -0 0
0 0 0 0 0 0 0 0 0 0 0 0 0 0 0 0 0 0 0 0 0 0 0 0 0 0 0 0 0 0 0 0 0 0 0 0 0 -0
0 0 0 0 0 0 0 0 0 0 0 0 0 0 0 0 0 0 0 0 0 0 0 0 0 0 -0 0 -0 0 0 0 0 0 0 0 -0 0
0 0 0 0 0 0 0 0 0 0 0 0 0 0 0 -0 0 0 0 0 -0 -0 0 0 0 0 0 0 -0 -0 -0 -0 0 -0 -0 0 0 0
0 0 0 0 0 0 0 0 0 0 -0 -0 0 0 0 -0 -0 0 0 0 0 0 0 0 0 0 0 0 -0 -0 -0 0 0 0 0 0 0 0
0 0 0 0 0 0 0 0 -0 -0 0 0 0 0 0 0 -0 0 0 0 0 0 0 0 0 0 0 -0 -0 -0 0 0 0 0 0 0 0 0
0 0 0 -0 -0 -0 -0 -0 0 0 0 0 0 0 0 0 0 0 0 0 0 0 0 0 0 0 0 0 0 -0 0 0 0 0 0 0 0 0
0 -0 -0 -0 -0 -0 -0 0 0 0 0 0 0 0 0 0 0 0 0 0 0 0 0 0 0 0 0 0 0 0 0 0 0 0 0 0 0 0
0 -0 -0 -0 -0 0 0 0 0 0 0 0 0 0 0 0 0 0 0 0 0 0 0 0 0 0 0 0 0 0 0 0 0 0 0 0 0 0
-0 0 -0 0 0 0 0 0 0 0 0 0 0 0 0 0 0 0 0 0 0 0 0 0 0 0 0 0 0 0 0 0 0 0 0 0 0 0
0 0 0 0 0 0 0 0 0 0 0 0 0 0 0 0 0 0 0 0 0 0 0 0 0 0 0 0 0 0 0 0 0 0 0 0 0 0
0 0 0 0 0 0 0 0 0 0 0 0 0 0 0 0 0 0 0 0 0 0 0 0 0 0 0 0 0 0 0 0 0 0 0 0 0 0
0 0 0 0 0 0 0 0 0 0 0 0 0 0 0 0 0 0 0 0 0 0 0 0 0 0 0 0 0 0 0 0 0 0 0 0 0 0
0 0 0 0 0 0 0 0 0 0 0 0 0 0 0 0 0 0 0 0 0 0 0 0 0 0 0 0 0 0 0 0 0 0 0 0 0 0
0 0 0 0 0 0 0 0 0 0 0 0 0 0 0 0 0 0 0 0 0 0 0 0 0 0 0 0 0 0 0 0 0 0 0 0 0 0
0 0 0 0 0 0 0 0 0 0 0 0 0 0 0 0 0 0 0 0 0 0 0 0 0 0 0 0 0 0 0 0 0 -0 -0 0 0 0
0 0 0 0 0 0 0 0 0 0 0 0 0 0 0 0 0 0 0 0 0 0 0 0 0 0 0 0 0 0 0 0 0 0 0 0 0 0
Wind_Speed_500mb
6 3 5 5 11 21 28 33 32 29 17 15 23 28 37 36 34 31 32 39 44 45 46 47 59 69 72 60 53 54 53 51 49 43 41 44 46 43
5 7 13 16 22 25 26 27 23 22 19 26 36 44 44 41 41 41 41 46 54 55 53 58 61 60 59 55 54 56 58 52 51 46 44 46 49 49
12 13 17 20 25 28 29 32 37 42 38 28 31 39 46 53 57 59 60 62 60 60 59 60 66 64 52 50 54 56 57 53 45 44 44 47 50 52
9 12 19 25 31 30 29 30 32 34 38 44 51 60 65 71 61 50 45 43 43 38 34 34 37 35 35 30 29 35 35 37 39 39 40 42 47 45
22 20 22 27 29 30 34 38 41 45 49 51 51 49 46 37 39 43 44 41 38 38 34 27 20 23 16 14 18 23 26 27 30 33 32 33 36 38
29 34 37 37 38 39 45 50 55 57 48 42 39 33 32 33 35 38 36 32 33 27 22 17 21 24 17 18 20 20 20 22 22 24 28 29 31 35
27 28 28 31 39 42 46 48 46 32 34 36 31 29 29 30 29 29 33 32 26 6 5 5 9 13 20 18 18 19 17 20 22 27 25 26 24 28
19 23 27 28 33 32 30 24 18 28 33 30 27 28 31 32 32 33 30 30 30 7 6 6 7 15 17 10 12 7 12 18 23 26 29 27 22 25
21 26 31 29 31 36 25 14 17 24 24 27 29 30 35 33 36 35 23 22 22 15 12 5 9 10 12 8 6 10 11 17 20 30 34 36 35 31
18 21 28 30 38 28 21 18 15 17 23 23 23 21 20 19 18 21 16 18 16 6 3 5 9 10 14 2 7 12 17 24 33 35 31 28 21 21
19 22 26 29 27 20 19 15 15 18 17 22 22 20 17 11 13 15 14 14 22 24 10 1 8 5 6 7 12 21 27 27 23 22 15 6 7 12
19 23 28 28 15 15 20 25 20 17 23 26 26 23 15 4 5 8 15 15 18 13 13 8 19 9 3 7 18 23 21 14 24 12 14 10 14 13
22 25 26 26 23 19 22 21 20 23 27 30 22 18 16 10 3 1 7 9 9 6 7 11 12 13 8 7 16 23 18 15 24 31 30 32 21 17
33 26 23 22 21 19 20 19 17 25 33 32 28 27 21 20 16 10 7 4 8 11 11 12 17 17 4 4 12 13 19 17 18 28 33 33 37 32
42 42 24 23 23 21 20 20 28 37 32 30 32 30 28 24 23 21 14 10 5 3 6 6 1 2 6 9 11 22 24 24 22 24 27 28 30 29
40 38 41 40 31 34 30 31 33 33 33 31 33 29 27 25 23 13 11 11 10 14 14 12 8 6 7 14 11 14 14 21 35 41 44 45 46 47
33 33 36 40 37 33 32 30 32 33 34 30 31 28 31 28 28 28 31 31 31 28 28 24 18 14 26 30 35 33 36 39 43 47 49 53 52 50
39 41 39 37 36 37 36 35 37 37 35 35 33 30 30 28 26 23 20 22 24 24 27 32 37 40 41 43 41 41 41 42 42 44 47 53 53 51
49 48 47 45 43 39 39 41 40 36 38 42 37 33 32 35 35 35 35 33 30 26 25 29 41 54 61 62 51 46 45 44 43 45 46 52 53 47
54 55 53 50 46 43 42 43 42 40 34 31 34 33 35 36 36 36 37 36 35 36 38 39 41 44 52 50 46 39 37 36 37 40 45 49 53 49
51 50 47 47 50 45 41 37 38 36 42 40 36 34 35 44 48 39 38 38 41 39 37 35 33 35 38 43 44 39 38 35 35 35 42 49 51 48
53 48 43 44 49 53 51 41 43 47 44 53 47 44 51 50 40 39 46 46 38 37 35 30 25 23 26 32 37 37 34 29 24 20 30 36 39 53
44 47 50 52 44 42 39 42 36 32 28 27 34 36 34 35 36 34 28 27 35 36 34 32 32 34 39 43 49 51 52 54 59 66 69 62 63 64
Wind_Direction_500mb
60 36 355 299 282 280 292 308 301 308 318 285 272 278 294 296 289 282 277 271 268 266 262 259 278 282 289 283 276 271 274 288 289 279 266 260 260 267
43 325 303 305 305 294 291 294 304 298 296 280 286 287 287 287 288 291 290 289 288 287 283 287 288 285 286 279 271 270 267 281 286 275 260 257 260 265
339 316 289 289 286 287 282 280 283 287 294 290 286 288 286 290 286 281 285 283 281 283 282 281 283 285 280 274 267 270 272 276 271 266 260 260 262 261
302 285 277 283 287 282 286 284 286 292 300 302 298 300 300 302 305 305 307 305 299 295 294 282 278 278 279 276 270 264 263 265 268 264 265 267 267 267
299 309 314 308 302 305 309 307 306 304 304 308 311 311 311 310 311 308 304 303 298 291 287 279 278 282 280 272 279 271 261 261 264 265 269 269 266 263
318 312 305 306 313 315 316 316 314 309 310 313 316 321 316 310 309 312 312 317 306 282 265 263 293 276 288 270 271 267 262 265 266 269 273 277 273 272
306 312 316 319 314 312 311 312 315 331 336 332 330 322 315 318 322 323 322 316 332 329 276 149 320 313 304 284 271 290 271 262 265 274 275 286 277 278
305 323 322 325 327 334 329 329 330 343 337 332 327 324 320 320 316 317 317 320 333 351 48 56 344 314 304 305 307 282 271 278 281 274 278 283 280 275
332 334 336 342 338 333 340 337 348 343 335 330 327 325 316 316 312 315 312 317 308 311 331 334 18 313 293 6 339 299 308 305 296 283 279 277 276 264
347 344 338 338 335 348 357 347 359 340 339 335 330 334 329 328 333 338 326 314 323 4 121 327 15 344 319 111 347 346 334 322 311 303 288 278 261 242
347 342 341 332 351 359 359 27 31 24 36 10 349 351 326 337 359 17 41 32 30 33 86 31 346 336 185 17 343 347 333 320 323 324 320 295 236 215
358 355 351 352 22 17 42 56 54 42 20 5 2 353 349 358 13 3 51 40 31 39 33 41 34 41 70 334 347 337 336 12 10 45 61 97 117 115
19 6 9 24 42 44 68 62 40 29 18 12 15 7 14 16 300 357 45 11 340 327 333 352 339 5 358 338 344 1 33 55 65 77 93 89 106 109
33 22 17 26 48 65 71 55 45 34 25 19 36 36 37 37 35 55 19 7 331 319 312 304 313 317 335 10 3 13 49 72 80 88 86 95 100 98
45 39 48 63 82 76 82 64 55 36 35 38 35 42 46 60 56 63 77 59 47 296 307 306 323 77 49 64 92 70 76 76 82 98 110 103 98 100
56 57 58 64 67 71 74 64 42 42 42 45 42 50 56 56 58 71 38 40 74 76 70 79 93 103 68 87 78 75 77 105 102 103 103 102 98 94
61 69 78 74 74 74 69 52 42 43 42 49 61 58 57 57 50 55 64 72 77 81 82 83 82 83 97 98 94 95 99 103 106 107 105 99 92 90
61 63 61 58 55 55 55 44 48 48 53 59 60 57 57 53 56 56 62 73 80 83 95 103 106 105 101 93 96 98 101 102 104 103 104 99 92 87
61 57 54 53 51 51 57 55 55 59 61 56 64 63 60 65 64 65 70 74 77 83 96 109 117 111 103 93 93 94 99 102 103 101 97 91 94 91
62 58 58 57 55 59 58 58 63 54 54 57 58 63 60 65 67 69 72 76 83 93 104 106 105 104 104 100 98 92 86 92 93 95 96 97 95 93
63 61 60 59 56 55 55 54 49 55 63 61 63 64 69 75 71 70 77 79 85 91 91 91 100 106 106 106 103 101 93 89 87 92 101 102 100 95
60 57 53 45 60 60 55 63 70 73 72 67 70 72 68 74 65 61 66 73 80 84 83 79 81 97 109 107 103 103 103 99 93 99 104 94 100 102
64 59 61 58 56 45 52 59 59 56 56 57 69 65 56 63 65 70 61 62 66 78 85 91 95 100 103 106 104 103 105 104 104 103 102 102 99 95
Wind_Speed_850mb
6 3 5 5 11 21 28 33 32 29 17 15 23 28 37 36 34 31 32 39 44 45 46 47 59 69 72 60 53 54 53 51 49 43 41 44 46 43
5 7 13 16 22 25 26 27 23 22 19 26 36 44 44 41 41 41 41 46 54 55 53 58 61 60 59 55 54 56 58 52 51 46 44 46 49 49
12 13 17 20 25 28 29 32 37 42 38 28 31 39 46 53 57 59 60 62 60 60 59 60 66 64 52 50 54 56 57 53 45 44 44 47 50 52
9 12 19 25 31 30 29 30 32 34 38 44 51 60 65 71 61 50 45 43 43 38 34 34 37 35 35 30 29 35 35 37 39 39 40 42 47 45
22 20 22 27 29 30 34 38 41 45 49 51 51 49 46 37 39 43 44 41 38 38 34 27 20 23 16 14 18 23 26 27 30 33 32 33 36 38
29 34 37 37 38 39 45 50 55 57 48 42 39 33 32 33 35 38 36 32 33 27 22 17 21 24 17 18 20 20 20 22 22 24 28 29 31 35
27 28 28 31 39 42 46 48 46 32 34 36 31 29 29 30 29 29 33 32 26 6 5 5 9 13 20 18 18 19 17 20 22 27 25 26 24 28
19 23 27 28 33 32 30 24 18 28 33 30 27 28 31 32 32 33 30 30 30 7 6 6 7 15 17 10 12 7 12 18 23 26 29 27 22 25
21 26 31 29 31 36 25 14 17 24 24 27 29 30 35 33 36 35 23 22 22 15 12 5 9 10 12 8 6 10 11 17 20 30 34 36 35 31
18 21 28 30 38 28 21 18 15 17 23 23 23 21 20 19 18 21 16 18 16 6 3 5 9 10 14 2 7 12 17 24 33 35 31 28 21 21
19 22 26 29 27 20 19 15 15 18 17 22 22 20 17 11 13 15 14 14 22 24 10 1 8 5 6 7 12 21 27 27 23 22 15 6 7 12
19 23 28 28 15 15 20 25 20 17 23 26 26 23 15 4 5 8 15 15 18 13 13 8 19 9 3 7 18 23 21 14 24 12 14 10 14 13
22 25 26 26 23 19 22 21 20 23 27 30 22 18 16 10 3 1 7 9 9 6 7 11 12 13 8 7 16 23 18 15 24 31 30 32 21 17
33 26 23 22 21 19 20 19 17 25 33 32 28 27 21 20 16 10 7 4 8 11 11 12 17 17 4 4 12 13 19 17 18 28 33 33 37 32
42 42 24 23 23 21 20 20 28 37 32 30 32 30 28 24 23 21 14 10 5 3 6 6 1 2 6 9 11 22 24 24 22 24 27 28 30 29
40 38 41 40 31 34 30 31 33 33 33 31 33 29 27 25 23 13 11 11 10 14 14 12 8 6 7 14 11 14 14 21 35 41 44 45 46 47
33 33 36 40 37 33 32 30 32 33 34 30 31 28 31 28 28 28 31 31 31 28 28 24 18 14 26 30 35 33 36 39 43 47 49 53 52 50
39 41 39 37 36 37 36 35 37 37 35 35 33 30 30 28 26 23 20 22 24 24 27 32 37 40 41 43 41 41 41 42 42 44 47 53 53 51
49 48 47 45 43 39 39 41 40 36 38 42 37 33 32 35 35 35 35 33 30 26 25 29 41 54 61 62 51 46 45 44 43 45 46 52 53 47
54 55 53 50 46 43 42 43 42 40 34 31 34 33 35 36 36 36 37 36 35 36 38 39 41 44 52 50 46 39 37 36 37 40 45 49 53 49
51 50 47 47 50 45 41 37 38 36 42 40 36 34 35 44 48 39 38 38 41 39 37 35 33 35 38 43 44 39 38 35 35 35 42 49 51 48
53 48 43 44 49 53 51 41 43 47 44 53 47 44 51 50 40 39 46 46 38 37 35 30 25 23 26 32 37 37 34 29 24 20 30 36 39 53
44 47 50 52 44 42 39 42 36 32 28 27 34 36 34 35 36 34 28 27 35 36 34 32 32 34 39 43 49 51 52 54 59 66 69 62 63 64
Wind_Direction_850mb
60 36 355 299 282 280 292 308 301 308 318 285 272 278 294 296 289 282 277 271 268 266 262 259 278 282 289 283 276 271 274 288 289 279 266 260 260 267
43 325 303 305 305 294 291 294 304 298 296 280 286 287 287 287 288 291 290 289 288 287 283 287 288 285 286 279 271 270 267 281 286 275 260 257 260 265
339 316 289 289 286 287 282 280 283 287 294 290 286 288 286 290 286 281 285 283 281 283 282 281 283 285 280 274 267 270 272 276 271 266 260 260 262 261
302 285 277 283 287 282 286 284 286 292 300 302 298 300 300 302 305 305 307 305 299 295 294 282 278 278 279 276 270 264 263 265 268 264 265 267 267 267
299 309 314 308 302 305 309 307 306 304 304 308 311 311 311 310 311 308 304 303 298 291 287 279 278 282 280 272 279 271 261 261 264 265 269 269 266 263
318 312 305 306 313 315 316 316 314 309 310 313 316 321 316 310 309 312 312 317 306 282 265 263 293 276 288 270 271 267 262 265 266 269 273 277 273 272
306 312 316 319 314 312 311 312 315 331 336 332 330 322 315 318 322 323 322 316 332 329 276 149 320 313 304 284 271 290 271 262 265 274 275 286 277 278
305 323 322 325 327 334 329 329 330 343 337 332 327 324 320 320 316 317 317 320 333 351 48 56 344 314 304 305 307 282 271 278 281 274 278 283 280 275
332 334 336 342 338 333 340 337 348 343 335 330 327 325 316 316 312 315 312 317 308 311 331 334 18 313 293 6 339 299 308 305 296 283 279 277 276 264
347 344 338 338 335 348 357 347 359 340 339 335 330 334 329 328 333 338 326 314 323 4 121 327 15 344 319 111 347 346 334 322 311 303 288 278 261 242
347 342 341 332 351 359 359 27 31 24 36 10 349 351 326 337 359 17 41 32 30 33 86 31 346 336 185 17 343 347 333 320 323 324 320 295 236 215
358 355 351 352 22 17 42 56 54 42 20 5 2 353 349 358 13 3 51 40 31 39 33 41 34 41 70 334 347 337 336 12 10 45 61 97 117 115
19 6 9 24 42 44 68 62 40 29 18 12 15 7 14 16 300 357 45 11 340 327 333 352 339 5 358 338 344 1 33 55 65 77 93 89 106 109
33 22 17 26 48 65 71 55 45 34 25 19 36 36 37 37 35 55 19 7 331 319 312 304 313 317 335 10 3 13 49 72 80 88 86 95 100 98
45 39 48 63 82 76 82 64 55 36 35 38 35 42 46 60 56 63 77 59 47 296 307 306 323 77 49 64 92 70 76 76 82 98 110 103 98 100
56 57 58 64 67 71 74 64 42 42 42 45 42 50 56 56 58 71 38 40 74 76 70 79 93 103 68 87 78 75 77 105 102 103 103 102 98 94
61 69 78 74 74 74 69 52 42 43 42 49 61 58 57 57 50 55 64 72 77 81 82 83 82 83 97 98 94 95 99 103 106 107 105 99 92 90
61 63 61 58 55 55 55 44 48 48 53 59 60 57 57 53 56 56 62 73 80 83 95 103 106 105 101 93 96 98 101 102 104 103 104 99 92 87
61 57 54 53 51 51 57 55 55 59 61 56 64 63 60 65 64 65 70 74 77 83 96 109 117 111 103 93 93 94 99 102 103 101 97 91 94 91
62 58 58 57 55 59 58 58 63 54 54 57 58 63 60 65 67 69 72 76 83 93 104 106 105 104 104 100 98 92 86 92 93 95 96 97 95 93
63 61 60 59 56 55 55 54 49 55 63 61 63 64 69 75 71 70 77 79 85 91 91 91 100 106 106 106 103 101 93 89 87 92 101 102 100 95
60 57 53 45 60 60 55 63 70 73 72 67 70 72 68 74 65 61 66 73 80 84 83 79 81 97 109 107 103 103 103 99 93 99 104 94 100 102
64 59 61 58 56 45 52 59 59 56 56 57 69 65 56 63 65 70 61 62 66 78 85 91 95 100 103 106 104 103 105 104 104 103 102 102 99 95